Regional Weather Roundup
Issued by NWS

Current Version | Previous Version | Graphics & Text | Print | Product List | Glossary On
Versions: 1 2 3 4 5 6 7 8 9 10 11 12 13 14 15 16 17 18 19 20 21 22 23 24 25 26 27 28 29 30 31 32 33 34 35 36 37 38 39 40 41 42 43 44 45 46 47 48 49 50
000
ASHW40 PHFO 010310
RWRHI

WEATHER ROUNDUP FOR HAWAII
NATIONAL WEATHER SERVICE HONOLULU HI
500 PM HST FRI OCT 31 2014

THIS IS AN AUTOMATED REPORT THAT HAS NOT BEEN QUALITY CONTROLLED.

NOTE..."FAIR" INDICATES FEW OR NO CLOUDS BELOW 12,000 FEET WITH NO
SIGNIFICANT WEATHER AND/OR OBSTRUCTIONS TO VISIBILITY.

* - THESE SITES REPORT LIMITED FIELDS

HIZ001>004-010400-
KAUAI-NIIHAU-

CITY           SKY/WX    TMP DP  RH WIND       PRES   REMARKS
LIHUE APT      CLOUDY    79  69  71 E23G29    30.04S
PORT ALLEN*      N/A     79 N/A N/A E16G23      N/A
POIPU*           N/A     77 N/A N/A NE12G22     N/A
PRINCEVILLE*     N/A     77 N/A N/A MISG        N/A
KOKOLE POINT*  NOT AVBL
MOLOAA DAIRY*  NOT AVBL
WAIMEA HTS*    NOT AVBL
PUU OPAE*      NOT AVBL
PUU LUA*       NOT AVBL
MAKAHA RIDGE*  NOT AVBL
$$

HIZ005>011-010400-
OAHU-

CITY           SKY/WX    TMP DP  RH WIND       PRES   REMARKS
HONOLULU       LGT RAIN  77  70  79 NE9       30.00R
KALAELOA       PTSUNNY   76  72  87 NE8       30.01R
KANEOHE MCB    CLOUDY    79  71  76 E10G18    30.02R
WHEELER FIELD  FAIR      75  70  83 NE8       30.03R
BELLOWS*       NOT AVBL
KAHUKU*        NOT AVBL
WHEELER*       NOT AVBL
WAIANAE HARBOR NOT AVBL
DILLINGHAM*      N/A     79  72  78 NE5G12      N/A
KAHUKU TRN*      N/A     72  70  94 E9G30       N/A
KAWAILOA*        N/A     72  68  88 E9G21       N/A
KII*             N/A     75  70  83 E16G35      N/A
MAKUA RANGE*     N/A     79  70  73 E7G16       N/A
OAHU FOREST NW NOT AVBL
SCHOFIELD BRK*   N/A     72  68  88 MISG        N/A
SCHOFIELD S*   NOT AVBL
WAIANAE VLY*   NOT AVBL
KUAOKALA*      NOT AVBL
HONOULIUULI*   NOT AVBL
MOKUOLOE IS*     N/A    N/A N/A N/A MISG        N/A
PALEHUA*       NOT AVBL
WAIAWA PHB*    NOT AVBL
$$

HIZ012>013-010400-
MOLOKAI-

CITY           SKY/WX    TMP DP  RH WIND       PRES   REMARKS
MOLOKAI AIRPT  MOSUNNY   79  74  84 NE16G25   30.01R
KALAUPAPA      NOT AVBL
MAKAPULAPAI*   NOT AVBL
MOLOKAI 1*     NOT AVBL
PUU ALII*      NOT AVBL
$$

HIZ016-010400-
KAHOOLAWE-

CITY           SKY/WX    TMP DP  RH WIND       PRES   REMARKS
KAHOOLAWE*     NOT AVBL
HAKIOAWA*      NOT AVBL
HONOKANAIA*      N/A     81  69  65 NE22G37   29.98R
KANELOA*         N/A     81  70  69 E24G41      N/A
KEALIALALO*    NOT AVBL
LUA MAKIKA*    NOT AVBL
$$

HIZ014>015-010400-
LANAI-

CITY           SKY/WX    TMP DP  RH WIND       PRES   REMARKS
LANAI CITY       N/A    N/A N/A N/A MISG        N/A
LANAI 1*       NOT AVBL
$$

HIZ017>028-010400-
MAUI-

CITY           SKY/WX    TMP DP  RH WIND       PRES   REMARKS
KAHULUI        MOSUNNY   82  67  60 E20G35    29.98R
KAPALUA-W MAUI MOSUNNY   79  68  69 NE20      29.98R
HANA AIRPORT   MOSUNNY   77  68  73 E9        30.05S
HANA*          NOT AVBL
HALEAKALA SUMM   N/A     46  23  39 E24G36      N/A
MAALAEA BAY*   NOT AVBL
HALEAKALA*     NOT AVBL
KAUPO GAP*     NOT AVBL
KULA 1*          N/A     58  55  90 NW5         N/A
$$

HIZ023>026-010400-
BIG ISLAND OF HAWAII COAST AND LOWER SLOPES-

CITY           SKY/WX    TMP DP  RH WIND       PRES   REMARKS
KAILUA KONA    PTSUNNY   83  69  62 W5        29.95R
HILO           RAIN      75  70  84 W5        30.03R
HONOKAA*       NOT AVBL
KAWAIHAE MWT*  NOT AVBL
KAWAIHAE*        N/A     82 N/A N/A W12G17      N/A
SOUTH POINT*   NOT AVBL
UPOLU AIRPORT* NOT AVBL
KAMUELA*       CLOUDY    70  64  83 NE21      30.09R
HAKALAU*         N/A     57  53  88 S5          N/A
KALOKO-HONOKO* NOT AVBL
PALI 2*          N/A    N/A N/A N/A N14G26      N/A
KEALAKOMO*       N/A     84  64  51 N18G31      N/A
KAUPULEHU*     NOT AVBL
KAPAPALA*      NOT AVBL
LOWER KAHUKU*  NOT AVBL
PUHE CS*       NOT AVBL
PUHO CS*       NOT AVBL
PTA KEAMUKU*     N/A     70  63  78 N13         N/A
WAIKOLOA*      NOT AVBL
$$

HIZ027>028-010400-
BIG ISLAND OF HAWAII INTERIOR AND SUMMMITS-

CITY           SKY/WX    TMP DP  RH WIND       PRES   REMARKS
BRADSHAW FIELD MOSUNNY   63  50  63 SE23G38   30.29R
MK VISITOR CEN NOT AVBL
MAUNA KEA*       N/A     34  27  75 SE2         N/A
MAUNA LOA*       N/A    N/A N/A N/A MISG        N/A
MAUNA LOA 1*   NOT AVBL
PTA KIPUKA*      N/A     64  59  82 W6G17       N/A
PTA RANGE 17*    N/A     73  57  56 SE22G35     N/A
PTA WEST*        N/A     66  61  82 W12G18      N/A
NENE CABIN*    NOT AVBL
AHUMOA*        NOT AVBL
PTA PORTABLE*  NOT AVBL
PUU MALI*      NOT AVBL
$$

HIC003-010400-
NORTHWEST ISLANDS-

CITY           SKY/WX    TMP DP  RH WIND       PRES   REMARKS
MIDWAY ISLAND  PTSUNNY   82  75  78 SW10      29.96S
MIDWAY NOS*    NOT AVBL
FRENCH FRIGATE NOT AVBL
$$

PHZ110>124-180-010400-
BUOY REPORTS

STATION/POSITION TIME  TEMP    WIND        PRES    WAVE   SWELL
                       AIR SEA DIR/SP/G            HT/PER HT/DIR
                 (UTC) (F)     (DEG/KT/KT) (MB)    (FT/S) (FT/D)
BUOY 51001       NOT AVBL
BUOY 51101       NOT AVBL
BUOY 51100       0300   78      90/ 16       N/A
BUOY 51003       0200   81 82   60/ 12/ 16 1014.3S   9/ 8   8
BUOY 51004       0232   80 81   80/ 16/ 19 1014.0R   9/10   7/ 10
BARBERS PT BUOY  NOT AVBL
WAIMEA BAY BUOY  0300      81                N/A    10/12   7/350
KAILUA BAY BUOY  0300      81                N/A    10/ 9   5/360
LANAI BUOY       0300      81                N/A     3/13   2/220
BARBERS PT 2     0300      81                N/A     4/ 9   2/220
PAUWELA MAUI     0300      80                N/A    11/ 9   7/360
HILO             0300      81                N/A     9/ 9   5/360
KANEOHE BAY BUOY NOT AVBL
HANALEI KAUAI    NOT AVBL
KAHULUI HARBOR   0300   80 80   60/ 21/ 33 1014.6F
HONOLULU HARBOR  0300   79      50/  4/  8 1015.8F
KILO NALU        NOT AVBL
HILO HARBOR      0300   74     230/  5/  6 1016.1R
MOKUOLOE         0300   78 81   80/ 10/ 13 1016.7S
NAWILIWILI       0300      81                N/A
WHOTS BUOY       NOT AVBL
BUOY 51028       NOT AVBL
$$

......................KEY........................................
  SKY/WX - SKY CONDITIONS/PRESENT WEATHER
  TMP    - TEMPERATURE IN FAHRENHEIT
  DWPT   - DEWPOINT IN FAHRENHEIT
  RH     - RELATIVE HUMIDITY IN PERCENT
  WIND   - DIRECTION AND SPEED /MPH FOR ISLANDS...KTS FOR BUOYS/
  PRES   - MEAN SEA LEVEL PRESSURE IN INCHES OF HG
  VSB    - VISIBILITY IN MILES
  HX     - HEAT INDEX
  WCI    - WIND CHILL INDEX
  VRB    - VARIABLE WIND DIRECTION
  N/A    - NOT AVAILABLE



USA.gov is the U.S. government's official web portal to all federal, state and local government web resources and services.